VLG44P LEAS-EHAM

Flight info

Callsign VLG44P
Flight time N/A
Altitude 24000
Route MAVOS M30 LOTEE/N0441F380 DCT AZFIC DCT ERIGA DCT GODIX DCT PODEM UN873 BAZOS DCT LUMIL DCT BELOB UY873 DENUT
Aircraft A20N/M-SDE2E3FGHIRWXY/LB1

Departure

Time N/A
Airport Asturias Airport (LEAS)

Arrival

Time 2026-04-30 18:00
Airport Amsterdam Airport Schiphol (EHAM)
Time Latitude Longitude Altitude Speed Heading
2026-04-30 17:39 51.35986 3.65730 21775 ft 405 kts 13°
2026-04-30 17:41 51.55693 3.81861 15758 ft 400 kts 31°
2026-04-30 17:42 51.60549 3.86111 14461 ft 391 kts 31°
2026-04-30 17:42 51.66067 3.90953 12700 ft 387 kts 32°
2026-04-30 17:44 51.72167 3.96300 10967 ft 379 kts 29°
2026-04-30 17:44 51.79547 3.95510 10078 ft 353 kts 325°
2026-04-30 17:46 51.85645 3.81108 8310 ft 304 kts 334°
2026-04-30 17:47 51.92033 3.85218 7271 ft 266 kts 80°
2026-04-30 17:48 51.96332 3.94856 7274 ft 274 kts 55°
2026-04-30 17:48 51.99706 4.02294 7282 ft 270 kts 60°
2026-04-30 17:49 52.03894 4.12223 7129 ft 250 kts 61°
2026-04-30 17:50 52.07295 4.20306 6245 ft 234 kts 62°
2026-04-30 17:51 52.09951 4.26637 5330 ft 233 kts 62°
2026-04-30 17:52 52.12605 4.32986 4477 ft 229 kts 62°
2026-04-30 17:53 52.17003 4.43518 3423 ft 222 kts 62°
2026-04-30 17:54 52.19531 4.49588 3153 ft 188 kts 63°
2026-04-30 17:55 52.22196 4.56280 2504 ft 171 kts 64°
2026-04-30 17:56 52.24658 4.62670 1614 ft 152 kts 64°
2026-04-30 17:57 52.26089 4.66343 1029 ft 116 kts 66°
2026-04-30 17:58 52.27374 4.69731 584 ft 115 kts 64°
2026-04-30 17:59 52.29108 4.74236 2 ft 111 kts 59°
2026-04-30 18:00 52.29921 4.75921 -2 ft 19 kts 28°
2026-04-30 18:00 52.30096 4.76258 -1 ft 6 kts 58°
2026-04-30 18:01 52.30119 4.76320 -1 ft 9 kts 58°
2026-04-30 18:02 52.30328 4.76726 -1 ft 17 kts 334°
2026-04-30 18:02 52.30513 4.76361 -2 ft 9 kts 328°
2026-04-30 18:03 52.30511 4.76261 -2 ft 0 kts 238°